Weather in Andrushivka

Ukraine / Zhytomyr Region     50˚01′07″N   29˚01′08″E
temp.,
°C
wind,
m/s
gust,
m/s
humid.,
%
clouds,
%
prec.,
mm/h
press.,
hPa
HPBL,
m
17 january, sun
sun1723:00−16˚sw23920 0.0 101881
02:00−16˚w12930 0.0 101734
05:00−15˚w119374 0.0 101666
08:00−14˚n119380 0.1 1016106
11:00−13˚nw128796 0.1 1017308
14:00−12˚nnw238598 0.1 1016484
17:00−13˚n2393100 0.1 1016204
20:00−13˚nnw3591100 0.3 1016480
18 january, mon
mon1823:00−13˚n2394100 0.2 1018298
02:00−14˚nnw2392100 0.4 1018353
05:00−15˚nw4592100 0.2 1018455
08:00−16˚nw3592100 0.3 1019447
11:00−15˚nnw2387100 0.1 1021525
14:00−15˚nw3487100 0.1 1020588
17:00−15˚nw4590100 0.1 1021456
20:00−17˚nw369498 0.1 1021380
19 january, tue
tue1923:00−16˚wnw359498 0.1 1022293
02:00−18˚wnw369696 0.1 1022231
05:00−18˚wnw359686 0.0 1022197
08:00−19˚wnw249678 0.0 1022121
11:00−16˚w238848 0.0 1022207
14:00−14˚wsw238536 0.0 1021233
17:00−15˚ssw22883 0.0 102024
20:00−14˚s23921 0.0 102033
20 january, wed
wed2023:00−12˚s349537 0.0 102076
02:00−10˚s369657 0.1 1020145
05:00−10˚s349683 0.1 101876
08:00−10˚s369591 0.1 1018104
11:00−7˚sse479098 0.0 1019246
14:00−5˚sse479097 0.0 1018291
17:00−6˚sse599198 0.0 1018249
20:00−5˚s5119298 0.1 1018300
21 january, thu
thu2123:00−5˚s599686 0.3 1019268
02:00−4˚s599491 0.6 1019238
05:00−4˚s51093100 0.0 1018241
08:00−4˚ssw5119199 0.0 1019213
11:00−1˚s598814 0.0 1019244
14:00ssw5118817 0.0 1018293
17:00−2˚ssw5109012 0.0 1017204
20:00−1˚ssw5118651 0.0 1017204